Location: Gwatt
(46.7204°N, 7.6223°E)
Time: 01:10:18
(UTC+00:00)

Vanguard 3 - Pass Details

Date: 21 January 2021
Orbit: 508 x 3262 km, 33.4° (Epoch: 03 March)

Event Time Altitude Azimuth Distance (km) Brightness Sun altitude
Exits shadow 05:40:01 - 243° (WSW) 3,814 10.1 -14.4°
Reaches altitude 10° 05:40:49 10° 241° (WSW) 3,617 10.0 -14.3°
Maximum altitude 05:50:02 44° 173° (S) 2,725 10.0 -12.8°
Drops below altitude 10° 06:05:03 10° 110° (ESE) 5,773 13.1 -10.3°
Sets 06:10:26 0° 105° (ESE) 7,038 14.3 -9.4°
